Regional Weather Roundup
Issued by NWS Huntsville, AL

Home | Current Version | Previous Version | Text Only | Print | Product List | Glossary On
Versions: 1 2 3 4 5 6 7 8 9 10 11 12 13 14 15 16 17 18 19 20 21 22 23 24 25 26 27
000
ASUS44 KHUN 240510
RWRHUN

WEATHER ROUNDUP FOR THE TENNESSEE VALLEY
NATIONAL WEATHER SERVICE HUNTSVILLE AL
1200 AM CDT FRI MAR 24 2017

ALZ001>004-240600-
NORTHWEST ALABAMA

CITY           SKY/WX    TMP DP  RH WIND       PRES   REMARKS
COURTLAND HCN    N/A     64 N/A N/A SE12        N/A
RUSSELLVILLE     N/A     64 N/A N/A MISG        N/A
SHOALS AIRPORT CLEAR     65  51  60 SE17G24   30.24S
SHOALS TVA RES   N/A     64 N/A N/A MISG        N/A
$$

ALZ005>007-016-240600-
NORTH CENTRAL ALABAMA

CITY           SKY/WX    TMP DP  RH WIND       PRES   REMARKS
CULLMAN AG STN   N/A     61 N/A N/A SE5         N/A
DECATUR AP     CLEAR     60  50  69 SE15      30.28S
HUNTSVILLE AP  CLEAR     63  49  60 SE17      30.28S
MERIDIANVILLE  CLEAR     61  43  51 SE14G21   30.29F
REDSTONE ARSN  CLEAR     61  48  62 S10       30.27F
VINEMONT AP    FAIR      60  48  66 SE7       30.32S
$$

ALZ008>010-240600-
NORTHEAST ALABAMA

CITY           SKY/WX    TMP DP  RH WIND       PRES   REMARKS
ALBERTVILLE    CLEAR     59  52  77 SE7       30.32S
FORT PAYNE     PTCLDY    59  36  41 E6        30.34S
SCOTTSBORO AP  MOCLDY    61  41  48 S9        30.34S
SCOTTSBORO HCN   N/A     61 N/A N/A MISG        N/A
VALLEY HEAD      N/A     59 N/A N/A MISG        N/A
$$

TNZ076-096-097-240600-
SOUTHEASTERN MIDDLE TENNESSEE

CITY           SKY/WX    TMP DP  RH WIND       PRES   REMARKS
TULLAHOMA      CLEAR     57  37  47 SE13      30.29S
WINCHESTER     CLEAR     57  39  51 SE16      30.29F
$$

...SURROUNDING SITES...

CITY           SKY/WX    TMP DP  RH WIND       PRES   REMARKS
ATLANTA        CLOUDY    60  39  45 SE10      30.41S
ANNISTON       CLOUDY    63  48  58 E8G16     30.35S
BIRMINGHAM     MOCLDY    63  50  62 SE13G18   30.34S
CHATTANOOGA    PTCLDY    59  35  40 SE9       30.37S
CORINTH        FAIR      68  54  60 S12G17    30.16S
DALTON         CLOUDY    57  36  44 S7        30.39F
GADSDEN        MOCLDY    61  48  62 SE5       30.35S
GOLDEN TRNGL   CLEAR     68  54  60 SE16G23   30.18R
HALEYVILLE     FAIR      62  52  69 S12G23    30.28R
JACKSON TN     CLEAR     69  52  54 S12G18    30.13F
MEMPHIS        CLEAR     70  53  54 S14G20    30.11R
NASHVILLE      CLEAR     62  43  49 S14G22    30.23R
OXFORD MS      FAIR      68  54  60 SE13G21   30.16S
ROME           CLOUDY    61  38  42 SE6       30.38S
SAVANNAH       MOCLDY    68  54  60 S10G18    30.16S
TUPELO         CLEAR     69  53  56 SE13      30.19R
TUSCALOOSA     PTCLDY    65  53  65 SE9       30.29R
$$

...GULF COAST WEATHER...

CITY           SKY/WX    TMP DP  RH WIND       PRES   REMARKS
GULFPORT       CLOUDY    71  67  87 SE18      30.24S
PASCAGOULA     CLOUDY    70  64  81 SE10G22   30.26S
MOBILE         CLOUDY    69  63  81 SE14      30.27S
GULF SHORES    CLOUDY    69  67  96 SE12      30.28S
PENSACOLA      CLOUDY    69  64  84 E10       30.28R
DESTIN         CLOUDY    71  62  73 E13       30.30R
PANAMA CITY    CLEAR     66  56  70 E10G18    30.32S
APPALACHICOLA  CLEAR     67  59  75 E13G21    30.33S
$$





USA.gov is the U.S. government's official web portal to all federal, state and local government web resources and services.